Time,TemperatureF,DewpointF,PressureIn,WindDirection,WindDirectionDegrees,WindSpeedMPH,WindSpeedGustMPH,Humidity,HourlyPrecipIn,Conditions,Clouds,dailyrainin,SoftwareType,DateUTC
2013-02-13 00:00:00,29.6,26.0,29.92,WSW,238,6.3,14.9,86,0.00,,OVC,0.00,VWS V14.00,2013-02-13 05:00:00,
2013-02-13 00:02:00,26.6,23.0,29.84,SSE,155,0.0,0.0,86,0.00,,FEW,0.00,VWS V14.00,2013-02-13 05:02:00,
2013-02-13 00:05:00,29.7,26.1,29.92,West,263,4.7,14.9,86,0.00,,OVC,0.00,VWS V14.00,2013-02-13 05:05:00,
2013-02-13 00:10:00,29.7,26.0,29.92,SW,228,6.2,14.9,86,0.00,,OVC,0.00,VWS V14.00,2013-02-13 05:10:00,
2013-02-13 00:15:00,29.8,26.0,29.92,SSW,207,8.4,14.9,86,0.00,,OVC,0.00,VWS V14.00,2013-02-13 05:15:00,
2013-02-13 00:20:00,29.7,25.8,29.91,WSW,239,5.3,14.9,85,0.00,,OVC,0.00,VWS V14.00,2013-02-13 05:20:00,
2013-02-13 00:26:00,29.8,25.7,29.91,SW,214,6.4,14.9,85,0.00,,OVC,0.00,VWS V14.00,2013-02-13 05:26:00,
2013-02-13 00:30:00,29.9,25.9,29.91,WSW,245,2.7,14.9,85,0.00,,SCT,0.00,VWS V14.00,2013-02-13 05:30:00,
2013-02-13 00:31:00,29.7,25.5,29.92,WSW,246,4.2,8.0,84,0.00,,OVC,0.00,VWS V14.00,2013-02-13 05:31:00,
2013-02-13 00:36:00,29.9,25.6,29.91,SW,218,5.2,8.0,84,0.00,,OVC,0.00,VWS V14.00,2013-02-13 05:36:00,
2013-02-13 00:41:00,30.0,25.6,29.92,SW,231,3.7,8.0,83,0.00,,OVC,0.00,VWS V14.00,2013-02-13 05:41:00,
2013-02-13 00:46:00,29.9,25.1,29.91,SSW,212,7.1,11.2,82,0.00,,OVC,0.00,VWS V14.00,2013-02-13 05:46:00,
2013-02-13 00:51:00,30.1,25.2,29.92,SW,231,4.0,11.2,82,0.00,,OVC,0.00,VWS V14.00,2013-02-13 05:51:00,
2013-02-13 00:56:00,30.0,25.0,29.92,SW,219,7.7,11.2,82,0.00,,OVC,0.00,VWS V14.00,2013-02-13 05:56:00,
2013-02-13 01:00:00,30.0,25.0,29.92,SW,217,4.8,11.2,81,0.00,,SCT,0.00,VWS V14.00,2013-02-13 06:00:00,
2013-02-13 01:01:00,30.0,25.0,29.92,WSW,253,6.3,7.3,81,0.00,,OVC,0.00,VWS V14.00,2013-02-13 06:01:00,
2013-02-13 01:06:00,30.1,25.0,29.92,SW,225,6.1,9.8,81,0.00,,OVC,0.00,VWS V14.00,2013-02-13 06:06:00,
2013-02-13 01:11:00,30.1,24.8,29.92,SW,225,6.2,9.8,80,0.00,,OVC,0.00,VWS V14.00,2013-02-13 06:11:00,
2013-02-13 01:16:00,30.2,25.0,29.92,WSW,253,6.6,9.8,81,0.00,,OVC,0.00,VWS V14.00,2013-02-13 06:16:00,
2013-02-13 01:21:00,30.4,25.0,29.92,WSW,252,6.3,10.9,80,0.00,,OVC,0.00,VWS V14.00,2013-02-13 06:21:00,
2013-02-13 01:26:00,30.4,25.1,29.92,SW,224,5.5,10.9,80,0.00,,OVC,0.00,VWS V14.00,2013-02-13 06:26:00,
2013-02-13 01:30:00,30.3,25.0,29.92,SW,219,7.9,10.9,80,0.00,,SCT,0.00,VWS V14.00,2013-02-13 06:30:00,
2013-02-13 01:31:00,30.4,25.0,29.92,WSW,240,3.4,9.5,80,0.00,,OVC,0.00,VWS V14.00,2013-02-13 06:31:00,
2013-02-13 01:36:00,30.5,25.1,29.92,WSW,252,5.9,9.5,80,0.00,,OVC,0.00,VWS V14.00,2013-02-13 06:36:00,
2013-02-13 01:41:00,30.3,24.7,29.92,WSW,248,8.9,11.5,80,0.00,,OVC,0.00,VWS V14.00,2013-02-13 06:41:00,
2013-02-13 01:46:00,30.7,25.1,29.92,WSW,240,3.8,11.5,79,0.00,,OVC,0.00,VWS V14.00,2013-02-13 06:46:00,
2013-02-13 01:51:00,30.7,24.9,29.92,West,281,8.5,11.5,79,0.00,,OVC,0.00,VWS V14.00,2013-02-13 06:51:00,
2013-02-13 01:56:00,30.8,25.0,29.92,WSW,250,5.2,11.5,79,0.00,,OVC,0.00,VWS V14.00,2013-02-13 06:56:00,
2013-02-13 02:00:00,30.8,25.0,29.92,WSW,253,4.4,11.5,79,0.00,,SCT,0.00,VWS V14.00,2013-02-13 07:00:00,
2013-02-13 02:01:00,30.8,25.0,29.92,SW,235,4.0,11.9,79,0.00,,OVC,0.00,VWS V14.00,2013-02-13 07:01:00,
2013-02-13 02:06:00,30.8,24.9,29.92,SW,225,5.4,11.9,78,0.00,,OVC,0.00,VWS V14.00,2013-02-13 07:06:00,
2013-02-13 02:11:00,31.0,25.0,29.92,SW,231,4.8,13.5,78,0.00,,OVC,0.00,VWS V14.00,2013-02-13 07:11:00,
2013-02-13 02:16:00,31.0,25.1,29.92,SW,235,4.4,13.5,78,0.00,,OVC,0.00,VWS V14.00,2013-02-13 07:16:00,
2013-02-13 02:21:00,31.0,24.9,29.92,West,262,7.5,13.5,78,0.00,,OVC,0.00,VWS V14.00,2013-02-13 07:21:00,
2013-02-13 02:26:00,31.1,25.1,29.93,WSW,239,6.6,13.5,78,0.00,,OVC,0.00,VWS V14.00,2013-02-13 07:26:00,
2013-02-13 02:30:00,30.9,24.9,29.93,West,271,6.3,13.5,78,0.00,,SCT,0.00,VWS V14.00,2013-02-13 07:30:00,
2013-02-13 02:31:00,31.0,25.1,29.92,SW,219,5.3,8.5,79,0.00,,OVC,0.00,VWS V14.00,2013-02-13 07:31:00,
2013-02-13 02:36:00,31.1,25.2,29.92,WSW,253,7.1,12.5,78,0.00,,OVC,0.00,VWS V14.00,2013-02-13 07:36:00,
2013-02-13 02:41:00,31.0,25.0,29.92,SW,226,5.2,12.5,78,0.00,,OVC,0.00,VWS V14.00,2013-02-13 07:41:00,
2013-02-13 02:46:00,31.2,25.3,29.92,WSW,256,4.2,12.5,78,0.00,,OVC,0.00,VWS V14.00,2013-02-13 07:46:00,
2013-02-13 02:51:00,31.0,25.1,29.92,South,177,3.3,12.5,79,0.00,,OVC,0.00,VWS V14.00,2013-02-13 07:51:00,
2013-02-13 02:56:00,31.1,25.3,29.92,SW,219,4.7,12.5,79,0.00,,OVC,0.00,VWS V14.00,2013-02-13 07:56:00,
2013-02-13 03:00:00,31.1,25.3,29.92,SW,235,8.6,12.5,79,0.00,,SCT,0.00,VWS V14.00,2013-02-13 08:00:00,
2013-02-13 03:01:00,31.0,25.2,29.92,WSW,248,5.1,8.9,79,0.00,,OVC,0.00,VWS V14.00,2013-02-13 08:01:00,
2013-02-13 03:06:00,31.0,25.2,29.92,SW,236,7.1,9.6,79,0.00,,OVC,0.00,VWS V14.00,2013-02-13 08:06:00,
2013-02-13 03:11:00,30.9,25.1,29.92,SW,236,7.5,9.6,79,0.00,,OVC,0.00,VWS V14.00,2013-02-13 08:11:00,
2013-02-13 03:16:00,30.9,25.3,29.92,SW,224,5.6,9.8,79,0.00,,OVC,0.00,VWS V14.00,2013-02-13 08:16:00,
2013-02-13 03:21:00,30.8,25.1,29.92,WSW,246,4.8,9.8,79,0.00,,OVC,0.00,VWS V14.00,2013-02-13 08:21:00,
2013-02-13 03:26:00,30.9,25.4,29.92,WSW,249,8.0,9.8,80,0.00,,OVC,0.00,VWS V14.00,2013-02-13 08:26:00,
2013-02-13 03:30:00,30.9,25.4,29.92,WSW,245,6.2,9.8,80,0.00,,SCT,0.00,VWS V14.00,2013-02-13 08:30:00,
2013-02-13 03:31:00,30.8,25.2,29.92,West,262,5.3,10.7,79,0.00,,OVC,0.00,VWS V14.00,2013-02-13 08:31:00,
2013-02-13 03:36:00,30.9,25.3,29.92,SW,219,4.6,10.7,80,0.00,,OVC,0.00,VWS V14.00,2013-02-13 08:36:00,
2013-02-13 03:41:00,30.9,25.3,29.92,SSW,211,7.5,10.7,79,0.00,,OVC,0.00,VWS V14.00,2013-02-13 08:41:00,
2013-02-13 03:46:00,30.8,25.2,29.92,SW,235,7.0,10.7,80,0.00,,OVC,0.00,VWS V14.00,2013-02-13 08:46:00,
2013-02-13 03:51:00,30.9,25.5,29.92,SSW,207,4.8,10.7,80,0.00,,OVC,0.00,VWS V14.00,2013-02-13 08:51:00,
2013-02-13 03:56:00,30.7,25.3,29.92,SW,221,5.2,10.7,80,0.00,,OVC,0.00,VWS V14.00,2013-02-13 08:56:00,
2013-02-13 04:00:00,30.7,25.3,29.92,WSW,243,5.4,10.8,80,0.00,,SCT,0.00,VWS V14.00,2013-02-13 09:00:00,
2013-02-13 04:01:00,30.9,25.6,29.92,WSW,242,4.2,11.6,80,0.00,,OVC,0.00,VWS V14.00,2013-02-13 09:01:00,
2013-02-13 04:06:00,30.8,25.5,29.92,WSW,255,4.8,11.6,80,0.00,,OVC,0.00,VWS V14.00,2013-02-13 09:06:00,
2013-02-13 04:11:00,30.8,25.5,29.92,SW,229,5.2,11.6,81,0.00,,OVC,0.00,VWS V14.00,2013-02-13 09:11:00,
2013-02-13 04:16:00,30.7,25.5,29.92,SSW,211,5.8,11.6,81,0.00,,OVC,0.00,VWS V14.00,2013-02-13 09:16:00,
2013-02-13 04:21:00,30.7,25.5,29.92,SW,233,3.3,11.6,81,0.00,,OVC,0.00,VWS V14.00,2013-02-13 09:21:00,
2013-02-13 04:26:00,30.7,25.6,29.92,SW,233,5.0,5.0,81,0.00,,OVC,0.00,VWS V14.00,2013-02-13 09:26:00,
2013-02-13 04:30:00,30.7,25.6,29.92,WSW,250,4.5,11.6,81,0.00,,SCT,0.00,VWS V14.00,2013-02-13 09:30:00,
2013-02-13 04:31:00,30.7,25.6,29.92,SW,221,5.1,8.4,81,0.00,,OVC,0.00,VWS V14.00,2013-02-13 09:31:00,
2013-02-13 04:36:00,30.6,25.6,29.92,SW,229,5.2,8.4,81,0.00,,OVC,0.00,VWS V14.00,2013-02-13 09:36:00,
2013-02-13 04:41:00,30.6,25.6,29.92,SW,236,5.0,9.8,81,0.00,,OVC,0.00,VWS V14.00,2013-02-13 09:41:00,
2013-02-13 04:46:00,30.5,25.6,29.92,West,262,2.7,9.8,82,0.00,,OVC,0.00,VWS V14.00,2013-02-13 09:46:00,
2013-02-13 04:51:00,30.4,25.5,29.92,SW,236,5.0,9.8,82,0.00,,OVC,0.00,VWS V14.00,2013-02-13 09:51:00,
2013-02-13 04:56:00,30.3,25.6,29.92,SW,221,4.5,4.5,82,0.00,,OVC,0.00,VWS V14.00,2013-02-13 09:56:00,
2013-02-13 05:00:00,30.2,25.5,29.92,SW,231,3.2,9.8,82,0.00,,SCT,0.00,VWS V14.00,2013-02-13 10:00:00,
2013-02-13 05:01:00,30.2,25.5,29.92,WSW,243,3.1,6.1,82,0.00,,OVC,0.00,VWS V14.00,2013-02-13 10:01:00,
2013-02-13 05:06:00,30.3,25.7,29.92,SW,231,3.9,10.3,83,0.00,,OVC,0.00,VWS V14.00,2013-02-13 10:06:00,
2013-02-13 05:11:00,30.2,25.7,29.92,WSW,239,6.5,10.3,83,0.00,,OVC,0.00,VWS V14.00,2013-02-13 10:11:00,
2013-02-13 05:16:00,30.2,25.8,29.92,SW,233,2.9,10.3,83,0.00,,OVC,0.00,VWS V14.00,2013-02-13 10:16:00,
2013-02-13 05:21:00,30.2,25.9,29.92,SSW,211,5.0,10.3,84,0.00,,OVC,0.00,VWS V14.00,2013-02-13 10:21:00,
2013-02-13 05:26:00,30.1,25.8,29.92,SW,217,4.2,4.2,84,0.00,,OVC,0.00,VWS V14.00,2013-02-13 10:26:00,
2013-02-13 05:30:00,30.1,25.8,29.92,West,273,3.9,10.3,84,0.00,,SCT,0.00,VWS V14.00,2013-02-13 10:30:00,
2013-02-13 05:31:00,30.0,25.8,29.92,SW,228,5.6,9.1,84,0.00,,OVC,0.00,VWS V14.00,2013-02-13 10:31:00,
2013-02-13 05:36:00,30.2,26.0,29.92,SW,235,3.8,9.1,84,0.00,,OVC,0.00,VWS V14.00,2013-02-13 10:36:00,
2013-02-13 05:41:00,30.1,26.0,29.92,SSW,210,7.1,9.1,84,0.00,,OVC,0.00,VWS V14.00,2013-02-13 10:41:00,
2013-02-13 05:46:00,30.1,25.9,29.92,SW,233,3.1,9.9,84,0.00,,OVC,0.00,VWS V14.00,2013-02-13 10:46:00,
2013-02-13 05:51:00,29.9,25.8,29.92,SW,232,5.0,9.9,84,0.00,,OVC,0.00,VWS V14.00,2013-02-13 10:51:00,
2013-02-13 05:56:00,29.9,25.8,29.92,SW,224,7.1,7.2,84,0.00,,OVC,0.00,VWS V14.00,2013-02-13 10:56:00,
2013-02-13 06:00:00,30.0,25.9,29.92,SW,229,5.9,9.9,84,0.00,,SCT,0.00,VWS V14.00,2013-02-13 11:00:00,
2013-02-13 06:01:00,30.0,25.9,29.92,WSW,249,3.7,7.3,84,0.00,,OVC,0.00,VWS V14.00,2013-02-13 11:01:00,
2013-02-13 06:06:00,29.8,25.7,29.92,West,260,5.1,7.3,84,0.00,,OVC,0.00,VWS V14.00,2013-02-13 11:06:00,
2013-02-13 06:11:00,29.9,25.8,29.92,WSW,248,4.7,8.5,84,0.00,,OVC,0.00,VWS V14.00,2013-02-13 11:11:00,
2013-02-13 06:16:00,29.8,25.6,29.92,WSW,238,3.4,8.5,84,0.00,,OVC,0.00,VWS V14.00,2013-02-13 11:16:00,
2013-02-13 06:21:00,29.8,25.6,29.91,WSW,248,3.1,8.5,84,0.00,,OVC,0.00,VWS V14.00,2013-02-13 11:21:00,
2013-02-13 06:26:00,29.8,25.7,29.91,WSW,249,2.0,5.8,84,0.00,,OVC,0.00,VWS V14.00,2013-02-13 11:26:00,
2013-02-13 06:30:00,29.7,25.6,29.91,SSW,200,5.8,8.5,84,0.00,,SCT,0.00,VWS V14.00,2013-02-13 11:30:00,
2013-02-13 06:31:00,29.8,25.7,29.91,SW,221,5.3,8.1,84,0.00,,OVC,0.00,VWS V14.00,2013-02-13 11:31:00,
2013-02-13 06:36:00,29.7,25.6,29.91,SSW,201,2.5,8.1,84,0.00,,OVC,0.00,VWS V14.00,2013-02-13 11:36:00,
2013-02-13 06:41:00,29.8,25.7,29.91,SW,221,3.6,8.1,84,0.00,,OVC,0.00,VWS V14.00,2013-02-13 11:41:00,
2013-02-13 06:46:00,29.8,25.7,29.91,SW,217,6.2,8.1,85,0.00,,OVC,0.00,VWS V14.00,2013-02-13 11:46:00,
2013-02-13 06:51:00,29.7,25.6,29.91,WSW,249,3.5,8.1,85,0.00,,OVC,0.00,VWS V14.00,2013-02-13 11:51:00,
2013-02-13 06:56:00,29.7,25.6,29.91,SW,231,3.0,4.8,85,0.00,,OVC,0.00,VWS V14.00,2013-02-13 11:56:00,
2013-02-13 07:00:00,29.7,25.6,29.91,SW,222,3.9,8.1,85,0.00,,SCT,0.00,VWS V14.00,2013-02-13 12:00:00,
2013-02-13 07:01:00,29.8,25.7,29.91,SW,228,4.0,4.8,85,0.00,,OVC,0.00,VWS V14.00,2013-02-13 12:01:00,
2013-02-13 07:06:00,29.6,25.5,29.92,SW,229,0.6,5.6,85,0.00,,OVC,0.00,VWS V14.00,2013-02-13 12:06:00,
2013-02-13 07:11:00,29.6,25.6,29.91,SW,228,2.9,5.6,85,0.00,,OVC,0.00,VWS V14.00,2013-02-13 12:11:00,
2013-02-13 07:16:00,29.7,25.7,29.92,SW,225,3.4,5.6,85,0.00,,OVC,0.00,VWS V14.00,2013-02-13 12:16:00,
2013-02-13 07:21:00,29.5,25.7,29.92,SSW,211,1.9,5.7,85,0.00,,OVC,0.00,VWS V14.00,2013-02-13 12:21:00,
2013-02-13 07:26:00,29.4,25.7,29.92,SSW,194,3.4,5.2,86,0.00,,OVC,0.00,VWS V14.00,2013-02-13 12:26:00,
2013-02-13 07:30:00,29.6,25.9,29.92,SW,226,4.5,6.0,86,0.00,,SCT,0.00,VWS V14.00,2013-02-13 12:30:00,
2013-02-13 07:31:00,29.5,25.9,29.92,South,191,1.7,5.4,86,0.00,,OVC,0.00,VWS V14.00,2013-02-13 12:31:00,
2013-02-13 07:36:00,29.5,26.0,29.92,SSW,195,0.0,5.4,86,0.00,,OVC,0.00,VWS V14.00,2013-02-13 12:36:00,
2013-02-13 07:41:00,29.5,26.1,29.92,SW,231,4.3,5.7,87,0.00,,OVC,0.00,VWS V14.00,2013-02-13 12:41:00,
2013-02-13 07:46:00,29.4,26.0,29.92,SSW,211,2.9,5.7,87,0.00,,OVC,0.00,VWS V14.00,2013-02-13 12:46:00,
2013-02-13 07:51:00,29.5,26.2,29.92,SW,224,4.3,5.7,87,0.00,,OVC,0.00,VWS V14.00,2013-02-13 12:51:00,
2013-02-13 07:56:00,29.3,26.1,29.92,SW,231,5.4,6.8,88,0.00,,OVC,0.00,VWS V14.00,2013-02-13 12:56:00,
2013-02-13 08:00:00,29.3,26.1,29.92,SSW,211,5.3,6.8,88,0.00,,SCT,0.00,VWS V14.00,2013-02-13 13:00:00,
2013-02-13 08:01:00,29.3,26.1,29.92,SW,214,4.8,7.6,88,0.00,,OVC,0.00,VWS V14.00,2013-02-13 13:01:00,
2013-02-13 08:07:00,29.4,26.3,29.92,SW,224,3.7,7.6,88,0.00,,OVC,0.00,VWS V14.00,2013-02-13 13:07:00,
2013-02-13 08:12:00,29.2,26.1,29.92,SW,228,4.3,8.0,88,0.00,,OVC,0.00,VWS V14.00,2013-02-13 13:12:00,
2013-02-13 08:17:00,29.2,26.2,29.92,SW,232,5.8,8.0,88,0.00,,OVC,0.00,VWS V14.00,2013-02-13 13:17:00,
2013-02-13 08:22:00,29.3,26.4,29.92,SW,226,4.7,8.5,89,0.00,,OVC,0.00,VWS V14.00,2013-02-13 13:22:00,
2013-02-13 08:27:00,29.4,26.5,29.92,WSW,238,3.8,4.0,89,0.00,,OVC,0.00,VWS V14.00,2013-02-13 13:27:00,
2013-02-13 08:30:00,29.4,26.5,29.92,South,187,3.7,8.5,89,0.00,,SCT,0.00,VWS V14.00,2013-02-13 13:30:00,
2013-02-13 08:32:00,29.3,26.3,29.92,WSW,238,4.4,6.8,88,0.00,,OVC,0.00,VWS V14.00,2013-02-13 13:32:00,
2013-02-13 08:37:00,29.4,26.4,29.92,SW,219,5.7,6.8,88,0.00,,OVC,0.00,VWS V14.00,2013-02-13 13:37:00,
2013-02-13 08:42:00,29.5,26.5,29.92,SW,221,4.5,7.2,88,0.00,,OVC,0.00,VWS V14.00,2013-02-13 13:42:00,
2013-02-13 08:47:00,29.6,26.5,29.91,SW,218,3.4,7.3,88,0.00,,OVC,0.00,VWS V14.00,2013-02-13 13:47:00,
2013-02-13 08:52:00,29.6,26.5,29.92,SSW,205,5.0,7.3,88,0.00,,OVC,0.00,VWS V14.00,2013-02-13 13:52:00,
2013-02-13 08:57:00,29.5,26.4,29.91,SW,225,6.2,7.3,88,0.00,,OVC,0.00,VWS V14.00,2013-02-13 13:57:00,
2013-02-13 09:00:00,29.5,26.4,29.91,SW,214,7.3,9.3,88,0.00,,SCT,0.00,VWS V14.00,2013-02-13 14:00:00,
2013-02-13 09:02:00,29.6,26.6,29.91,SSW,204,6.4,7.3,88,0.00,,OVC,0.00,VWS V14.00,2013-02-13 14:02:00,
2013-02-13 09:07:00,29.5,26.5,29.91,SSW,208,5.0,8.1,88,0.00,,OVC,0.00,VWS V14.00,2013-02-13 14:07:00,
2013-02-13 09:12:00,29.7,26.8,29.91,SSW,207,2.1,8.1,89,0.00,,OVC,0.00,VWS V14.00,2013-02-13 14:12:00,
2013-02-13 09:17:00,29.7,26.7,29.91,SW,217,3.2,8.1,88,0.00,,OVC,0.00,VWS V14.00,2013-02-13 14:17:00,
2013-02-13 09:22:00,29.8,26.7,29.91,SSW,208,5.0,8.1,88,0.00,,OVC,0.00,VWS V14.00,2013-02-13 14:22:00,
2013-02-13 09:27:00,29.9,26.6,29.91,WSW,248,3.2,4.8,88,0.00,,OVC,0.00,VWS V14.00,2013-02-13 14:27:00,
2013-02-13 09:30:00,30.0,26.8,29.91,SW,222,4.0,8.1,88,0.00,,SCT,0.00,VWS V14.00,2013-02-13 14:30:00,
2013-02-13 09:32:00,30.2,26.9,29.91,SW,229,2.0,5.1,87,0.00,,OVC,0.00,VWS V14.00,2013-02-13 14:32:00,
2013-02-13 09:37:00,30.3,26.8,29.91,SSW,210,1.6,5.5,87,0.00,,OVC,0.00,VWS V14.00,2013-02-13 14:37:00,
2013-02-13 09:42:00,30.4,26.9,29.90,SSE,149,1.7,5.5,87,0.00,,OVC,0.00,VWS V14.00,2013-02-13 14:42:00,
2013-02-13 09:47:00,30.6,27.1,29.90,SSW,210,0.0,5.5,87,0.00,,OVC,0.00,VWS V14.00,2013-02-13 14:47:00,
2013-02-13 09:52:00,30.2,26.6,29.90,South,180,1.6,7.0,86,0.00,,OVC,0.00,VWS V14.00,2013-02-13 14:52:00,
2013-02-13 09:57:00,30.5,27.0,29.90,SW,235,0.0,0.0,86,0.00,,OVC,0.00,VWS V14.00,2013-02-13 14:57:00,
2013-02-13 10:00:00,30.5,27.0,29.90,SW,235,0.0,7.0,86,0.00,,SCT,0.00,VWS V14.00,2013-02-13 15:00:00,
2013-02-13 10:02:00,30.6,27.0,29.90,South,188,2.4,6.0,86,0.00,,OVC,0.00,VWS V14.00,2013-02-13 15:02:00,
2013-02-13 10:07:00,30.5,26.8,29.91,West,263,6.7,8.3,86,0.00,,OVC,0.00,VWS V14.00,2013-02-13 15:07:00,
2013-02-13 10:12:00,30.4,26.5,29.90,SW,225,5.5,9.6,85,0.00,,OVC,0.00,VWS V14.00,2013-02-13 15:12:00,
2013-02-13 10:17:00,30.5,26.6,29.90,SW,224,1.2,9.6,85,0.00,,OVC,0.00,VWS V14.00,2013-02-13 15:17:00,
2013-02-13 10:22:00,30.4,26.3,29.90,SW,217,7.3,9.6,84,0.00,,OVC,0.00,VWS V14.00,2013-02-13 15:22:00,
2013-02-13 10:27:00,30.7,26.5,29.90,West,266,4.0,5.7,84,0.00,,OVC,0.00,VWS V14.00,2013-02-13 15:27:00,
2013-02-13 10:30:00,30.6,26.4,29.90,WSW,240,3.6,9.6,84,0.00,,SCT,0.00,VWS V14.00,2013-02-13 15:30:00,
2013-02-13 10:32:00,30.9,26.7,29.90,WSW,242,3.5,8.0,84,0.00,,OVC,0.00,VWS V14.00,2013-02-13 15:32:00,
2013-02-13 10:37:00,31.0,26.5,29.90,SW,231,3.4,8.0,83,0.00,,OVC,0.00,VWS V14.00,2013-02-13 15:37:00,
2013-02-13 10:42:00,31.1,26.3,29.90,SW,228,5.2,8.0,82,0.00,,OVC,0.00,VWS V14.00,2013-02-13 15:42:00,
2013-02-13 10:47:00,31.2,26.1,29.90,SSW,204,5.9,9.1,81,0.00,,OVC,0.00,VWS V14.00,2013-02-13 15:47:00,
2013-02-13 10:52:00,31.3,26.1,29.90,SW,225,5.5,9.6,81,0.00,,OVC,0.00,VWS V14.00,2013-02-13 15:52:00,
2013-02-13 10:57:00,31.5,26.0,29.89,SSW,204,3.7,5.5,80,0.00,,OVC,0.00,VWS V14.00,2013-02-13 15:57:00,
2013-02-13 11:00:00,31.5,26.2,29.90,SSW,202,3.9,9.6,80,0.00,,SCT,0.00,VWS V14.00,2013-02-13 16:00:00,
2013-02-13 11:02:00,31.5,25.7,29.89,SW,232,4.8,8.5,79,0.00,,OVC,0.00,VWS V14.00,2013-02-13 16:02:00,
2013-02-13 11:07:00,31.9,26.2,29.89,WSW,253,5.3,8.5,79,0.00,,OVC,0.00,VWS V14.00,2013-02-13 16:07:00,
2013-02-13 11:12:00,31.9,26.2,29.89,SW,222,6.0,10.7,79,0.00,,OVC,0.00,VWS V14.00,2013-02-13 16:12:00,
2013-02-13 11:17:00,31.9,26.2,29.89,SW,231,6.0,10.7,79,0.00,,OVC,0.00,VWS V14.00,2013-02-13 16:17:00,
2013-02-13 11:22:00,31.9,26.2,29.89,SW,225,4.9,10.7,79,0.00,,OVC,0.00,VWS V14.00,2013-02-13 16:22:00,
2013-02-13 11:27:00,32.1,26.1,29.89,SSW,212,9.6,9.6,78,0.00,,OVC,0.00,VWS V14.00,2013-02-13 16:27:00,
2013-02-13 11:30:00,32.0,26.0,29.89,WSW,245,5.6,10.7,78,0.00,,SCT,0.00,VWS V14.00,2013-02-13 16:30:00,
2013-02-13 11:32:00,32.1,26.1,29.89,WSW,240,4.1,10.4,78,0.00,,OVC,0.00,VWS V14.00,2013-02-13 16:32:00,
2013-02-13 11:37:00,32.2,26.0,29.89,SW,219,5.7,10.4,78,0.00,,OVC,0.00,VWS V14.00,2013-02-13 16:37:00,
2013-02-13 11:42:00,32.4,26.4,29.88,SW,228,3.9,10.4,78,0.00,,OVC,0.00,VWS V14.00,2013-02-13 16:42:00,
2013-02-13 11:47:00,32.4,26.2,29.88,West,263,4.7,10.4,78,0.00,,OVC,0.00,VWS V14.00,2013-02-13 16:47:00,
2013-02-13 11:52:00,32.7,26.6,29.87,SSW,205,3.7,10.4,78,0.00,,OVC,0.00,VWS V14.00,2013-02-13 16:52:00,
2013-02-13 11:57:00,32.6,26.4,29.87,SSW,207,2.7,6.6,78,0.00,,OVC,0.00,VWS V14.00,2013-02-13 16:57:00,
2013-02-13 12:00:00,32.7,26.5,29.87,SW,236,2.1,10.4,78,0.00,,SCT,0.00,VWS V14.00,2013-02-13 17:00:00,
2013-02-13 12:02:00,32.7,26.3,29.87,SSW,211,4.7,9.1,77,0.00,,OVC,0.00,VWS V14.00,2013-02-13 17:02:00,
2013-02-13 12:07:00,33.0,26.4,29.87,WSW,239,2.5,9.1,76,0.00,,OVC,0.00,VWS V14.00,2013-02-13 17:07:00,
2013-02-13 12:12:00,33.0,26.1,29.86,SW,221,5.4,9.1,76,0.00,,OVC,0.00,VWS V14.00,2013-02-13 17:12:00,
2013-02-13 12:17:00,33.2,26.5,29.86,SSW,210,2.5,9.1,76,0.00,,OVC,0.00,VWS V14.00,2013-02-13 17:17:00,
2013-02-13 12:22:00,33.1,26.3,29.86,SSW,201,3.1,9.1,76,0.00,,OVC,0.00,VWS V14.00,2013-02-13 17:22:00,
2013-02-13 12:27:00,33.0,26.3,29.86,SW,236,4.8,5.9,76,0.00,,OVC,0.00,VWS V14.00,2013-02-13 17:27:00,
2013-02-13 12:30:00,33.2,26.4,29.86,SW,231,4.8,9.1,76,0.00,,SCT,0.00,VWS V14.00,2013-02-13 17:30:00,
2013-02-13 12:32:00,32.8,26.0,29.86,SW,224,6.0,8.9,76,0.00,,OVC,0.00,VWS V14.00,2013-02-13 17:32:00,
2013-02-13 12:37:00,33.3,26.5,29.86,SSE,165,4.7,8.9,76,0.00,,OVC,0.00,VWS V14.00,2013-02-13 17:37:00,
2013-02-13 12:42:00,33.3,26.0,29.86,SW,222,5.1,8.9,74,0.00,,OVC,0.00,VWS V14.00,2013-02-13 17:42:00,
2013-02-13 12:47:00,33.4,25.7,29.85,SW,229,5.2,8.9,73,0.00,,OVC,0.00,VWS V14.00,2013-02-13 17:47:00,
2013-02-13 12:52:00,33.5,25.7,29.85,SW,222,5.6,8.9,73,0.00,,OVC,0.00,VWS V14.00,2013-02-13 17:52:00,
2013-02-13 12:57:00,33.5,25.5,29.85,SW,215,4.7,7.3,72,0.00,,OVC,0.00,VWS V14.00,2013-02-13 17:57:00,
2013-02-13 13:00:00,33.5,25.6,29.85,South,170,5.1,8.9,72,0.00,,SCT,0.00,VWS V14.00,2013-02-13 18:00:00,
2013-02-13 13:02:00,33.6,25.2,29.85,SSW,202,3.8,8.1,71,0.00,,OVC,0.00,VWS V14.00,2013-02-13 18:02:00,
2013-02-13 13:07:00,33.5,25.3,29.85,South,172,5.4,8.1,72,0.00,,OVC,0.00,VWS V14.00,2013-02-13 18:07:00,
2013-02-13 13:12:00,33.7,25.6,29.84,SSE,149,4.2,8.1,72,0.00,,OVC,0.00,VWS V14.00,2013-02-13 18:12:00,
2013-02-13 13:17:00,33.4,25.4,29.84,SSE,153,4.3,8.5,72,0.00,,OVC,0.00,VWS V14.00,2013-02-13 18:17:00,
2013-02-13 13:22:00,33.6,25.9,29.84,SSE,153,4.7,8.5,73,0.00,,OVC,0.00,VWS V14.00,2013-02-13 18:22:00,
2013-02-13 13:27:00,33.6,25.6,29.84,South,172,1.9,3.6,72,0.00,,OVC,0.00,VWS V14.00,2013-02-13 18:27:00,
2013-02-13 13:30:00,33.4,25.4,29.84,SW,217,0.0,8.5,72,0.00,,SCT,0.00,VWS V14.00,2013-02-13 18:30:00,
2013-02-13 13:32:00,33.4,25.3,29.84,South,179,3.6,6.5,72,0.00,,OVC,0.00,VWS V14.00,2013-02-13 18:32:00,
2013-02-13 13:37:00,33.4,25.4,29.84,South,173,0.0,7.0,72,0.00,,OVC,0.00,VWS V14.00,2013-02-13 18:37:00,
2013-02-13 13:42:00,33.5,25.6,29.84,SSE,166,0.0,7.0,72,0.00,,OVC,0.00,VWS V14.00,2013-02-13 18:42:00,
2013-02-13 13:47:00,33.4,25.2,29.83,SW,222,4.3,7.7,72,0.00,,OVC,0.00,VWS V14.00,2013-02-13 18:47:00,
2013-02-13 13:52:00,33.3,25.0,29.83,SSW,205,2.2,7.7,71,0.00,,OVC,0.00,VWS V14.00,2013-02-13 18:52:00,
2013-02-13 13:57:00,33.5,25.3,29.83,WSW,252,2.3,2.9,72,0.00,,OVC,0.00,VWS V14.00,2013-02-13 18:57:00,
2013-02-13 14:00:00,33.4,25.2,29.83,SSW,211,0.0,7.7,71,0.00,,SCT,0.00,VWS V14.00,2013-02-13 19:00:00,
2013-02-13 14:02:00,33.3,25.2,29.84,WNW,291,4.3,5.5,72,0.00,,OVC,0.00,VWS V14.00,2013-02-13 19:02:00,
2013-02-13 14:07:00,33.4,25.6,29.83,West,271,2.7,5.5,73,0.00,,OVC,0.00,VWS V14.00,2013-02-13 19:07:00,
2013-02-13 14:12:00,33.3,25.6,29.83,WNW,295,2.0,5.5,73,0.00,,OVC,0.00,VWS V14.00,2013-02-13 19:12:00,
2013-02-13 14:17:00,33.3,25.3,29.83,WNW,291,3.7,5.5,72,0.00,,OVC,0.00,VWS V14.00,2013-02-13 19:17:00,
2013-02-13 14:22:00,33.4,25.5,29.83,WSW,253,4.0,6.2,72,0.00,,OVC,0.00,VWS V14.00,2013-02-13 19:22:00,
2013-02-13 14:27:00,33.4,25.4,29.83,WNW,294,2.7,3.9,72,0.00,,OVC,0.00,VWS V14.00,2013-02-13 19:27:00,
2013-02-13 14:30:00,33.4,25.5,29.83,WNW,290,1.9,6.2,72,0.00,,SCT,0.00,VWS V14.00,2013-02-13 19:30:00,
2013-02-13 14:32:00,33.4,25.3,29.83,SW,219,3.2,5.9,72,0.00,,OVC,0.00,VWS V14.00,2013-02-13 19:32:00,
2013-02-13 14:37:00,33.7,25.2,29.83,SW,235,3.5,5.9,71,0.00,,OVC,0.00,VWS V14.00,2013-02-13 19:37:00,
2013-02-13 14:42:00,33.7,25.2,29.83,SW,236,4.5,5.9,71,0.00,,OVC,0.00,VWS V14.00,2013-02-13 19:42:00,
2013-02-13 14:47:00,33.7,25.2,29.83,SW,221,4.1,6.0,71,0.00,,OVC,0.00,VWS V14.00,2013-02-13 19:47:00,
2013-02-13 14:52:00,33.7,24.8,29.83,SSW,211,6.0,7.0,70,0.00,,OVC,0.00,VWS V14.00,2013-02-13 19:52:00,
2013-02-13 14:57:00,33.6,24.4,29.83,SW,229,5.2,7.7,68,0.00,,OVC,0.00,VWS V14.00,2013-02-13 19:57:00,
2013-02-13 15:00:00,33.3,23.8,29.83,SSW,205,6.3,10.2,68,0.00,,SCT,0.00,VWS V14.00,2013-02-13 20:00:00,
2013-02-13 15:02:00,33.5,24.3,29.83,West,260,4.8,7.7,69,0.00,,OVC,0.00,VWS V14.00,2013-02-13 20:02:00,
2013-02-13 15:07:00,33.6,24.6,29.83,SW,224,4.0,7.7,69,0.00,,OVC,0.00,VWS V14.00,2013-02-13 20:07:00,
2013-02-13 15:12:00,33.5,24.4,29.83,SW,221,4.6,7.8,69,0.00,,OVC,0.00,VWS V14.00,2013-02-13 20:12:00,
2013-02-13 15:17:00,33.6,24.6,29.83,West,267,2.9,7.8,69,0.00,,OVC,0.00,VWS V14.00,2013-02-13 20:17:00,
2013-02-13 15:22:00,33.7,24.8,29.83,WNW,288,3.8,7.8,69,0.00,,OVC,0.00,VWS V14.00,2013-02-13 20:22:00,
2013-02-13 15:27:00,33.8,25.0,29.83,SSW,207,1.2,3.5,70,0.00,,OVC,0.00,VWS V14.00,2013-02-13 20:27:00,
2013-02-13 15:30:00,33.8,24.9,29.83,SW,225,3.2,7.8,70,0.00,,SCT,0.00,VWS V14.00,2013-02-13 20:30:00,
2013-02-13 15:32:00,33.5,24.5,29.83,WSW,238,3.4,8.1,69,0.00,,OVC,0.00,VWS V14.00,2013-02-13 20:32:00,
2013-02-13 15:37:00,33.5,24.4,29.83,SW,233,5.0,8.2,69,0.00,,OVC,0.00,VWS V14.00,2013-02-13 20:37:00,
2013-02-13 15:42:00,33.5,24.4,29.83,WSW,246,5.6,8.2,69,0.00,,OVC,0.00,VWS V14.00,2013-02-13 20:42:00,
2013-02-13 15:48:00,33.6,24.5,29.83,SW,215,2.4,8.2,69,0.00,,OVC,0.00,VWS V14.00,2013-02-13 20:48:00,
2013-02-13 15:53:00,33.6,24.6,29.83,SW,224,2.9,8.2,69,0.00,,OVC,0.00,VWS V14.00,2013-02-13 20:53:00,
2013-02-13 15:58:00,33.9,24.9,29.83,South,186,4.0,5.3,69,0.00,,OVC,0.00,VWS V14.00,2013-02-13 20:58:00,
2013-02-13 16:00:00,33.8,24.7,29.83,SW,225,3.8,8.2,69,0.00,,SCT,0.00,VWS V14.00,2013-02-13 21:00:00,
2013-02-13 16:03:00,33.7,24.7,29.83,WSW,250,4.7,9.7,69,0.00,,OVC,0.00,VWS V14.00,2013-02-13 21:03:00,
2013-02-13 16:08:00,33.7,24.3,29.83,SW,229,5.0,9.7,68,0.00,,OVC,0.00,VWS V14.00,2013-02-13 21:08:00,
2013-02-13 16:13:00,33.7,24.3,29.83,SW,229,5.3,9.7,68,0.00,,OVC,0.00,VWS V14.00,2013-02-13 21:13:00,
2013-02-13 16:18:00,33.6,24.4,29.82,WSW,243,4.1,9.7,69,0.00,,OVC,0.00,VWS V14.00,2013-02-13 21:18:00,
2013-02-13 16:23:00,33.5,24.2,29.82,SW,229,4.7,9.7,68,0.00,,OVC,0.00,VWS V14.00,2013-02-13 21:23:00,
2013-02-13 16:28:00,33.6,24.4,29.82,SW,214,4.7,7.3,69,0.00,,OVC,0.00,VWS V14.00,2013-02-13 21:28:00,
2013-02-13 16:30:00,33.5,24.4,29.82,SW,217,5.8,9.7,69,0.00,,SCT,0.00,VWS V14.00,2013-02-13 21:30:00,
2013-02-13 16:33:00,33.6,24.5,29.82,SW,224,4.1,7.4,69,0.00,,OVC,0.00,VWS V14.00,2013-02-13 21:33:00,
2013-02-13 16:38:00,33.5,24.5,29.82,SW,229,3.5,7.4,69,0.00,,OVC,0.00,VWS V14.00,2013-02-13 21:38:00,
2013-02-13 16:43:00,33.5,24.6,29.82,SW,231,3.7,7.4,70,0.00,,OVC,0.00,VWS V14.00,2013-02-13 21:43:00,
2013-02-13 16:48:00,33.4,24.6,29.82,SSW,212,4.1,7.4,70,0.00,,OVC,0.00,VWS V14.00,2013-02-13 21:48:00,
2013-02-13 16:53:00,33.5,24.9,29.82,SW,231,1.2,7.4,70,0.00,,OVC,0.00,VWS V14.00,2013-02-13 21:53:00,
2013-02-13 16:58:00,33.4,24.9,29.82,SW,236,1.9,2.1,71,0.00,,OVC,0.00,VWS V14.00,2013-02-13 21:58:00,
2013-02-13 17:00:00,33.5,24.9,29.82,WSW,239,0.0,7.4,70,0.00,,SCT,0.00,VWS V14.00,2013-02-13 22:00:00,
2013-02-13 17:03:00,33.3,25.0,29.82,SW,232,4.0,7.0,71,0.00,,OVC,0.00,VWS V14.00,2013-02-13 22:03:00,
2013-02-13 17:08:00,33.2,24.9,29.82,WSW,238,0.0,7.0,71,0.00,,OVC,0.00,VWS V14.00,2013-02-13 22:08:00,
2013-02-13 17:13:00,33.3,25.1,29.82,WSW,238,0.0,7.0,72,0.00,,OVC,0.00,VWS V14.00,2013-02-13 22:13:00,
2013-02-13 17:18:00,33.2,25.0,29.82,WSW,253,0.0,7.0,71,0.00,,OVC,0.00,VWS V14.00,2013-02-13 22:18:00,
2013-02-13 17:23:00,33.1,24.9,29.82,SW,235,0.0,7.0,72,0.00,,OVC,0.00,VWS V14.00,2013-02-13 22:23:00,
2013-02-13 17:28:00,33.1,24.9,29.82,SW,235,0.0,0.0,72,0.00,,OVC,0.00,VWS V14.00,2013-02-13 22:28:00,
2013-02-13 17:30:00,33.1,24.8,29.82,SW,235,0.0,7.0,71,0.00,,SCT,0.00,VWS V14.00,2013-02-13 22:30:00,
2013-02-13 17:33:00,33.0,24.8,29.82,WSW,239,0.0,4.5,71,0.00,,OVC,0.00,VWS V14.00,2013-02-13 22:33:00,
2013-02-13 17:38:00,32.9,24.6,29.82,WSW,248,3.3,4.8,71,0.00,,OVC,0.00,VWS V14.00,2013-02-13 22:38:00,
2013-02-13 17:43:00,33.0,24.8,29.83,WSW,242,0.0,4.8,71,0.00,,OVC,0.00,VWS V14.00,2013-02-13 22:43:00,
2013-02-13 17:48:00,32.9,24.8,29.83,WSW,242,0.0,4.8,72,0.00,,OVC,0.00,VWS V14.00,2013-02-13 22:48:00,
2013-02-13 17:53:00,32.7,24.5,29.83,SW,229,2.1,5.5,72,0.00,,OVC,0.00,VWS V14.00,2013-02-13 22:53:00,
2013-02-13 17:58:00,32.6,24.4,29.83,WSW,248,4.0,5.5,71,0.00,,OVC,0.00,VWS V14.00,2013-02-13 22:58:00,
2013-02-13 18:00:00,32.7,24.5,29.83,West,262,1.6,5.5,72,0.00,,SCT,0.00,VWS V14.00,2013-02-13 23:00:00,
2013-02-13 18:03:00,32.6,24.4,29.83,SW,214,1.8,6.0,71,0.00,,OVC,0.00,VWS V14.00,2013-02-13 23:03:00,
2013-02-13 18:08:00,32.5,24.4,29.83,WSW,239,1.2,6.0,72,0.00,,OVC,0.00,VWS V14.00,2013-02-13 23:08:00,
2013-02-13 18:13:00,32.6,24.4,29.83,SSW,207,3.2,6.0,72,0.00,,OVC,0.00,VWS V14.00,2013-02-13 23:13:00,
2013-02-13 18:18:00,32.3,24.0,29.83,SW,217,3.5,6.0,71,0.00,,OVC,0.00,VWS V14.00,2013-02-13 23:18:00,
2013-02-13 18:23:00,32.3,24.0,29.83,SW,236,3.2,6.0,71,0.00,,OVC,0.00,VWS V14.00,2013-02-13 23:23:00,
2013-02-13 18:28:00,32.2,23.8,29.83,SW,215,0.0,0.0,71,0.00,,OVC,0.00,VWS V14.00,2013-02-13 23:28:00,
2013-02-13 18:30:00,32.3,24.0,29.83,SW,215,0.0,6.0,71,0.00,,SCT,0.00,VWS V14.00,2013-02-13 23:30:00,
2013-02-13 18:33:00,32.3,23.9,29.82,SW,233,0.0,3.8,71,0.00,,OVC,0.00,VWS V14.00,2013-02-13 23:33:00,
2013-02-13 18:38:00,32.4,24.0,29.82,SW,233,0.0,3.8,71,0.00,,OVC,0.00,VWS V14.00,2013-02-13 23:38:00,
2013-02-13 18:43:00,32.3,23.8,29.82,SW,233,0.0,3.8,70,0.00,,OVC,0.00,VWS V14.00,2013-02-13 23:43:00,
2013-02-13 18:48:00,32.2,23.7,29.82,SW,233,0.0,3.8,70,0.00,,OVC,0.00,VWS V14.00,2013-02-13 23:48:00,
2013-02-13 18:53:00,32.0,23.6,29.82,SW,233,0.0,3.8,71,0.00,,OVC,0.00,VWS V14.00,2013-02-13 23:53:00,
2013-02-13 18:58:00,32.0,23.7,29.82,SW,233,0.0,0.0,71,0.00,,OVC,0.00,VWS V14.00,2013-02-13 23:58:00,
2013-02-13 19:00:00,32.1,23.7,29.82,SW,233,0.0,3.8,71,0.00,,SCT,0.00,VWS V14.00,2013-02-14 00:00:00,
2013-02-13 19:03:00,31.6,23.7,29.82,SW,233,0.0,0.0,72,0.00,,OVC,0.00,VWS V14.00,2013-02-14 00:03:00,
2013-02-13 19:08:00,31.3,23.7,29.82,SW,233,0.0,0.0,73,0.00,,OVC,0.00,VWS V14.00,2013-02-14 00:08:00,
2013-02-13 19:13:00,30.8,23.6,29.82,SW,233,0.0,0.0,74,0.00,,OVC,0.00,VWS V14.00,2013-02-14 00:13:00,
2013-02-13 19:18:00,30.3,23.4,29.82,SW,233,0.0,0.0,75,0.00,,OVC,0.00,VWS V14.00,2013-02-14 00:18:00,
2013-02-13 19:23:00,29.8,23.0,29.82,SW,233,0.0,0.0,76,0.00,,OVC,0.00,VWS V14.00,2013-02-14 00:23:00,
2013-02-13 19:28:00,29.3,22.8,29.82,SW,233,0.0,0.0,76,0.00,,OVC,0.00,VWS V14.00,2013-02-14 00:28:00,
2013-02-13 19:30:00,29.5,22.9,29.82,SW,233,0.0,0.0,76,0.00,,SCT,0.00,VWS V14.00,2013-02-14 00:30:00,
2013-02-13 19:33:00,29.0,22.7,29.82,SW,233,0.0,0.0,77,0.00,,OVC,0.00,VWS V14.00,2013-02-14 00:33:00,
2013-02-13 19:38:00,28.7,22.8,29.82,SW,233,0.0,0.0,78,0.00,,OVC,0.00,VWS V14.00,2013-02-14 00:38:00,
2013-02-13 19:43:00,28.3,22.6,29.82,SW,233,0.0,0.0,79,0.00,,OVC,0.00,VWS V14.00,2013-02-14 00:43:00,
2013-02-13 19:48:00,28.0,22.3,29.82,SW,233,0.0,0.0,79,0.00,,OVC,0.00,VWS V14.00,2013-02-14 00:48:00,
2013-02-13 19:53:00,27.7,22.2,29.83,SW,233,0.0,0.0,80,0.00,,OVC,0.00,VWS V14.00,2013-02-14 00:53:00,
2013-02-13 19:58:00,27.4,22.0,29.83,SW,233,0.0,0.0,80,0.00,,FEW,0.00,VWS V14.00,2013-02-14 00:58:00,
2013-02-13 20:00:00,27.6,22.2,29.83,SW,233,0.0,0.0,80,0.00,,SCT,0.00,VWS V14.00,2013-02-14 01:00:00,
2013-02-13 20:03:00,27.1,21.9,29.83,SW,233,0.0,0.0,81,0.00,,FEW,0.00,VWS V14.00,2013-02-14 01:03:00,
2013-02-13 20:08:00,26.9,21.9,29.83,SW,233,0.0,0.0,81,0.00,,FEW,0.00,VWS V14.00,2013-02-14 01:08:00,
2013-02-13 20:13:00,26.5,21.7,29.83,SW,233,0.0,0.0,82,0.00,,FEW,0.00,VWS V14.00,2013-02-14 01:13:00,
2013-02-13 20:18:00,26.3,21.6,29.83,SW,233,0.0,0.0,82,0.00,,FEW,0.00,VWS V14.00,2013-02-14 01:18:00,
2013-02-13 20:23:00,26.2,21.6,29.83,SW,233,0.0,0.0,82,0.00,,FEW,0.00,VWS V14.00,2013-02-14 01:23:00,
2013-02-13 20:28:00,26.1,21.7,29.83,SW,233,0.0,0.0,83,0.00,,FEW,0.00,VWS V14.00,2013-02-14 01:28:00,
2013-02-13 20:30:00,26.1,21.6,29.83,SW,233,0.0,0.0,83,0.00,,SCT,0.00,VWS V14.00,2013-02-14 01:30:00,
2013-02-13 20:33:00,26.1,21.8,29.83,SW,233,0.0,0.0,84,0.00,,FEW,0.00,VWS V14.00,2013-02-14 01:33:00,
2013-02-13 20:38:00,26.0,21.9,29.83,SW,233,0.0,0.0,84,0.00,,FEW,0.00,VWS V14.00,2013-02-14 01:38:00,
2013-02-13 20:43:00,26.1,22.0,29.83,SSE,155,0.0,1.0,84,0.00,,FEW,0.00,VWS V14.00,2013-02-14 01:43:00,
2013-02-13 20:48:00,26.1,21.9,29.83,SSE,155,0.0,1.0,84,0.00,,FEW,0.00,VWS V14.00,2013-02-14 01:48:00,
2013-02-13 20:53:00,26.0,21.8,29.83,SSE,155,0.0,1.0,84,0.00,,FEW,0.00,VWS V14.00,2013-02-14 01:53:00,
2013-02-13 20:58:00,25.9,21.9,29.83,SSE,155,0.0,0.0,84,0.00,,FEW,0.00,VWS V14.00,2013-02-14 01:58:00,
2013-02-13 21:00:00,26.0,21.9,29.83,SSE,155,0.0,1.0,84,0.00,,SCT,0.00,VWS V14.00,2013-02-14 02:00:00,
2013-02-13 21:03:00,26.0,22.0,29.83,SSE,155,0.0,0.0,84,0.00,,FEW,0.00,VWS V14.00,2013-02-14 02:03:00,
2013-02-13 21:08:00,25.9,21.8,29.83,SSE,155,0.0,0.0,84,0.00,,FEW,0.00,VWS V14.00,2013-02-14 02:08:00,
2013-02-13 21:13:00,25.7,21.7,29.83,SSE,155,0.0,0.0,85,0.00,,FEW,0.00,VWS V14.00,2013-02-14 02:13:00,
2013-02-13 21:18:00,25.6,21.6,29.83,SSE,155,0.0,0.0,85,0.00,,FEW,0.00,VWS V14.00,2013-02-14 02:18:00,
2013-02-13 21:23:00,25.3,21.4,29.83,SSE,155,0.0,0.0,85,0.00,,FEW,0.00,VWS V14.00,2013-02-14 02:23:00,
2013-02-13 21:28:00,25.2,21.4,29.83,SSE,155,0.0,0.0,85,0.00,,FEW,0.00,VWS V14.00,2013-02-14 02:28:00,
2013-02-13 21:30:00,25.3,21.4,29.83,SSE,155,0.0,0.0,85,0.00,,SCT,0.00,VWS V14.00,2013-02-14 02:30:00,
2013-02-13 21:33:00,25.0,21.2,29.83,SSE,155,0.0,0.0,85,0.00,,FEW,0.00,VWS V14.00,2013-02-14 02:33:00,
2013-02-13 21:38:00,24.7,21.1,29.83,SSE,155,0.0,0.0,86,0.00,,FEW,0.00,VWS V14.00,2013-02-14 02:38:00,
2013-02-13 21:43:00,24.7,21.1,29.84,SSE,155,0.0,0.0,86,0.00,,FEW,0.00,VWS V14.00,2013-02-14 02:43:00,
2013-02-13 21:48:00,24.7,21.1,29.84,SSE,155,0.0,0.0,86,0.00,,FEW,0.00,VWS V14.00,2013-02-14 02:48:00,
2013-02-13 21:53:00,24.4,20.9,29.84,SSE,155,0.0,0.0,86,0.00,,FEW,0.00,VWS V14.00,2013-02-14 02:53:00,
2013-02-13 21:58:00,24.2,20.7,29.83,SSE,155,0.0,0.0,86,0.00,,FEW,0.00,VWS V14.00,2013-02-14 02:58:00,
2013-02-13 22:00:00,24.3,20.8,29.83,SSE,155,0.0,0.0,86,0.00,,SCT,0.00,VWS V14.00,2013-02-14 03:00:00,
2013-02-13 22:03:00,24.2,20.8,29.83,SSE,155,0.0,0.0,87,0.00,,FEW,0.00,VWS V14.00,2013-02-14 03:03:00,
2013-02-13 22:08:00,24.4,21.2,29.83,SSE,155,0.0,0.0,87,0.00,,FEW,0.00,VWS V14.00,2013-02-14 03:08:00,
2013-02-13 22:13:00,24.6,21.4,29.83,SSE,155,0.0,0.0,87,0.00,,FEW,0.00,VWS V14.00,2013-02-14 03:13:00,
2013-02-13 22:18:00,24.9,22.0,29.83,SSE,155,0.0,0.0,89,0.00,,FEW,0.00,VWS V14.00,2013-02-14 03:18:00,
2013-02-13 22:23:00,25.0,21.9,29.83,SSE,155,0.0,0.0,88,0.00,,FEW,0.00,VWS V14.00,2013-02-14 03:23:00,
2013-02-13 22:28:00,24.9,21.8,29.83,SSE,155,0.0,0.0,88,0.00,,FEW,0.00,VWS V14.00,2013-02-14 03:28:00,
2013-02-13 22:30:00,25.0,21.9,29.83,SSE,155,0.0,0.0,88,0.00,,SCT,0.00,VWS V14.00,2013-02-14 03:30:00,
2013-02-13 22:33:00,24.9,21.7,29.83,SSE,155,0.0,0.0,87,0.00,,FEW,0.00,VWS V14.00,2013-02-14 03:33:00,
2013-02-13 22:38:00,24.7,21.4,29.84,SSE,155,0.0,0.0,87,0.00,,FEW,0.00,VWS V14.00,2013-02-14 03:38:00,
2013-02-13 22:43:00,24.4,21.1,29.84,SSE,155,0.0,0.0,87,0.00,,FEW,0.00,VWS V14.00,2013-02-14 03:43:00,
2013-02-13 22:48:00,24.5,21.3,29.84,SSE,155,0.0,0.0,88,0.00,,FEW,0.00,VWS V14.00,2013-02-14 03:48:00,
2013-02-13 22:54:00,24.8,21.7,29.84,SSE,155,0.0,0.0,88,0.00,,FEW,0.00,VWS V14.00,2013-02-14 03:54:00,
2013-02-13 22:59:00,25.3,22.3,29.84,SSE,155,0.0,0.0,88,0.00,,FEW,0.00,VWS V14.00,2013-02-14 03:59:00,
2013-02-13 23:00:00,25.0,21.9,29.84,SSE,155,0.0,0.0,88,0.00,,SCT,0.00,VWS V14.00,2013-02-14 04:00:00,
2013-02-13 23:04:00,25.8,22.7,29.84,SSE,155,0.0,0.0,88,0.00,,FEW,0.00,VWS V14.00,2013-02-14 04:04:00,
2013-02-13 23:09:00,26.0,22.7,29.84,SSE,155,0.0,0.0,87,0.00,,FEW,0.00,VWS V14.00,2013-02-14 04:09:00,
2013-02-13 23:14:00,26.0,22.6,29.84,SSE,155,0.0,0.0,87,0.00,,FEW,0.00,VWS V14.00,2013-02-14 04:14:00,
2013-02-13 23:19:00,25.9,22.4,29.84,SSE,155,0.0,0.0,86,0.00,,FEW,0.00,VWS V14.00,2013-02-14 04:19:00,
2013-02-13 23:24:00,25.8,22.4,29.84,SSE,155,0.0,0.0,87,0.00,,FEW,0.00,VWS V14.00,2013-02-14 04:24:00,
2013-02-13 23:29:00,26.1,22.7,29.84,SSE,155,0.0,0.0,87,0.00,,FEW,0.00,VWS V14.00,2013-02-14 04:29:00,
2013-02-13 23:30:00,25.8,22.5,29.84,SSE,155,0.0,0.0,87,0.00,,SCT,0.00,VWS V14.00,2013-02-14 04:30:00,
2013-02-13 23:34:00,26.0,22.6,29.84,SSE,155,0.0,0.0,87,0.00,,FEW,0.00,VWS V14.00,2013-02-14 04:34:00,
2013-02-13 23:39:00,26.1,22.7,29.84,SSE,155,0.0,0.0,87,0.00,,FEW,0.00,VWS V14.00,2013-02-14 04:39:00,
2013-02-13 23:44:00,26.4,23.0,29.84,SSE,155,0.0,0.0,87,0.00,,FEW,0.00,VWS V14.00,2013-02-14 04:44:00,
2013-02-13 23:49:00,26.5,23.0,29.84,SSE,155,0.0,0.0,86,0.00,,FEW,0.00,VWS V14.00,2013-02-14 04:49:00,
2013-02-13 23:54:00,26.7,23.2,29.84,SSE,155,0.0,0.0,86,0.00,,FEW,0.00,VWS V14.00,2013-02-14 04:54:00,